Weather History for Buffalo, WY

Change the Weather History Date:

Sunday, December 16, 2012

  Actual Average Record
Temperature  
Mean Temperature 26 °F 25 °F  
Max Temperature 36 °F 36 °F 61 °F (2013)
Min Temperature 16 °F 15 °F -15 °F (2008)
Degree Days  
Heating Degree Days 39 40  
Month to date heating degree days 508 628  
Since 1 July heating degree days 2065 2462  
Moisture  
Dew Point 12 °F    
Average Humidity 55    
Maximum Humidity 77    
Minimum Humidity 32    
Precipitation  
Precipitation 0.00 in 0.01 in 0.19 in (1981)
Month to date precipitation 0.01 0.23  
Year to date precipitation 8.83 13.28  
Sea Level Pressure  
Sea Level Pressure 29.71 in    
Wind  
Wind Speed 4 mph (WNW)    
Max Wind Speed 12 mph    
Max Gust Speed 13 mph    
Visibility 10 miles    
Events      
T = Trace of Precipitation, MM = Missing Value Source: NWS Daily Summary

Daily Weather History Graph

Daily Weather History Graph

Search for Another Location

Airport:

Trip Planner

Search our weather history database for the weather conditions in past years. The results will help you decide how hot, cold, wet, or windy it might be!

Date:

Astronomy

Dec. 16, 2012 Rise Set
Actual Time 7:37 AM MST 4:28 PM MST
Civil Twilight 7:03 AM MST 5:01 PM MST
Nautical Twilight 6:26 AM MST 5:38 PM MST
Astronomical Twilight 5:51 AM MST 6:14 PM MST
Moon 10:05 AM MST (12/16) 8:54 PM MST (12/16)
Length of Visible Light 9h 58m
Length of Day
8h 51m
Waxing Crescent, 16% of the Moon is Illuminated
Dec 16
Waxing Crescent
Dec 19
First Quarter
Dec 28
Full
Jan 4
Last Quarter
Jan 11
New

Hourly Weather History & Observations

Time (MST) Temp. Windchill Dew Point Humidity Pressure Visibility Wind Dir Wind Speed Gust Speed Precip Events Conditions
12:53 AM 21.9 °F - 14.0 °F 72% 29.67 in 10.0 mi Calm Calm - N/A   Clear
1:53 AM 21.0 °F - 14.0 °F 74% 29.65 in 10.0 mi Calm Calm - N/A   Clear
2:53 AM 23.0 °F - 16.0 °F 74% 29.64 in 10.0 mi Calm Calm - N/A   Partly Cloudy
3:53 AM 21.9 °F 15.7 °F 16.0 °F 78% 29.64 in 10.0 mi NNW 4.6 mph - N/A   Overcast
4:53 AM 23.0 °F 15.8 °F 16.0 °F 74% 29.62 in 10.0 mi NW 5.8 mph - N/A   Mostly Cloudy
5:53 AM 21.9 °F 12.5 °F 15.1 °F 75% 29.62 in 10.0 mi WNW 8.1 mph - N/A   Partly Cloudy
6:53 AM 21.0 °F 11.4 °F 15.1 °F 78% 29.65 in 10.0 mi WNW 8.1 mph - N/A   Clear
7:53 AM 24.1 °F 19.7 °F 14.0 °F 65% 29.65 in 10.0 mi NW 3.5 mph - N/A   Clear
8:53 AM 23.0 °F 18.4 °F 15.1 °F 72% 29.68 in 10.0 mi WNW 3.5 mph - N/A   Clear
9:53 AM 30.0 °F - 15.1 °F 54% 29.68 in 10.0 mi Calm Calm - N/A   Mostly Cloudy
10:53 AM 33.1 °F - 14.0 °F 46% 29.68 in 10.0 mi Calm Calm - N/A   Overcast
11:53 AM 34.0 °F 28.0 °F 10.0 °F 37% 29.66 in 10.0 mi North 6.9 mph - N/A   Overcast
12:53 PM 34.0 °F 28.0 °F 10.0 °F 37% 29.68 in 10.0 mi North 6.9 mph - N/A   Overcast
1:53 PM 35.1 °F 29.3 °F 9.0 °F 34% 29.70 in 10.0 mi North 6.9 mph - N/A   Overcast
2:53 PM 33.1 °F 27.7 °F 10.9 °F 40% 29.72 in 10.0 mi North 5.8 mph - N/A   Overcast
3:53 PM 32.0 °F - 12.0 °F 44% 29.74 in 10.0 mi Calm Calm - N/A   Overcast
4:53 PM 30.0 °F - 12.0 °F 47% 29.75 in 10.0 mi Calm Calm - N/A   Partly Cloudy
5:53 PM 21.9 °F 12.5 °F 10.9 °F 63% 29.80 in 10.0 mi SW 8.1 mph - N/A   Clear
6:53 PM 21.0 °F 14.6 °F 10.9 °F 65% 29.82 in 10.0 mi WSW 4.6 mph - N/A   Clear
7:53 PM 21.0 °F 16.2 °F 9.0 °F 60% 29.81 in 10.0 mi West 3.5 mph - N/A   Partly Cloudy
8:53 PM 21.0 °F 16.2 °F 10.0 °F 63% 29.81 in 10.0 mi WNW 3.5 mph - N/A   Mostly Cloudy
9:53 PM 19.9 °F 13.4 °F 10.0 °F 65% 29.79 in 10.0 mi WSW 4.6 mph - N/A   Clear
10:53 PM 17.1 °F 11.7 °F 9.0 °F 71% 29.78 in 10.0 mi WSW 3.5 mph - N/A   Clear
11:53 PM 19.0 °F 12.3 °F 9.0 °F 65% 29.74 in 10.0 mi WSW 4.6 mph - N/A   Clear